Wind_Speed
10 9 9 8 7 6 5 4 3 3 3 3 4 4 4 4 5 5 6 6 6 6 6 7 7 7 7 7 7 8 8 7 8 8 9 9 10 11 12 12 12 12 13
10 10 10 9 8 8 7 6 5 5 5 5 5 5 5 6 6 6 6 7 7 7 7 7 7 7 7 8 8 8 8 8 8 8 9 10 11 11 12 13 13 13 14
11 11 11 10 10 9 9 8 7 7 7 6 7 7 7 7 7 7 8 8 8 8 8 8 8 8 8 8 9 9 9 9 9 10 10 10 11 12 13 13 14 14 15
12 11 12 11 11 10 10 9 9 8 8 8 8 9 9 9 9 9 9 9 9 9 9 9 9 9 9 10 10 10 10 11 11 11 11 12 13 13 14 14 15 16 17
12 12 12 12 12 11 11 11 10 10 10 10 10 10 10 10 10 11 10 10 10 11 11 11 11 11 11 12 11 12 12 13 13 14 14 15 15 16 17 17 18 19 20
13 13 13 14 13 13 12 13 12 12 12 12 12 12 12 12 12 12 12 12 12 12 12 12 12 13 13 13 14 14 15 15 16 17 17 18 18 19 19 20 20 21 22
12 12 14 15 15 15 14 14 15 14 14 14 14 14 14 14 14 14 14 14 14 14 15 15 15 15 16 16 16 17 18 18 18 19 20 20 21 22 22 23 24 24 25
13 14 15 15 15 15 15 15 15 15 16 16 15 15 15 16 16 16 16 16 16 17 17 17 18 18 18 18 19 20 20 21 22 22 23 23 23 25 26 26 27 28 29
15 15 15 15 15 15 15 16 16 17 17 17 17 16 17 17 18 18 18 18 18 18 19 19 20 20 21 21 21 22 23 24 25 26 26 26 27 28 30 30 31 31 32
16 16 16 15 15 16 17 17 17 18 18 17 17 17 17 18 18 19 19 20 20 21 21 21 22 22 23 23 23 24 25 26 27 28 29 30 31 31 32 34 34 35 35
17 16 17 17 17 18 18 18 19 19 19 19 19 19 19 19 20 20 21 21 21 22 22 23 23 24 25 25 26 27 28 29 30 31 32 33 34 35 35 36 37 38 38
18 18 18 18 18 19 20 20 20 20 20 20 20 20 21 21 21 21 21 22 22 23 24 25 25 26 27 28 29 30 31 32 32 33 34 35 36 37 37 38 39 40 40
18 18 19 19 20 20 20 20 20 21 21 21 21 21 21 22 22 22 23 24 24 25 26 26 27 28 29 30 31 33 34 34 35 36 36 38 38 39 39 40 41 42 42
19 19 19 20 20 20 21 21 22 22 22 22 23 23 23 23 24 25 26 26 27 28 28 29 30 31 31 32 34 35 36 37 38 38 39 40 40 41 41 41 42 42 43
19 19 19 20 21 21 22 22 23 23 24 25 25 25 25 26 27 27 28 28 30 30 31 32 32 33 34 35 36 37 38 39 40 40 41 41 42 42 43 44 44 45 45
20 20 20 21 22 22 23 23 23 25 26 27 27 27 28 29 30 30 31 31 32 33 33 34 35 36 37 38 39 39 40 41 42 42 43 43 43 44 45 45 46 46 47
21 22 22 22 23 23 24 24 25 26 26 27 28 29 30 31 32 33 33 34 34 34 35 36 37 38 39 40 41 42 42 43 44 44 45 45 46 46 46 47 47 48 48
22 23 23 24 24 24 25 25 26 27 28 28 29 30 32 32 33 34 34 35 35 36 37 38 39 40 41 42 43 44 44 45 45 46 46 46 47 47 48 48 49 49 50
23 24 25 26 26 26 27 27 28 28 29 30 31 31 33 33 34 35 36 37 38 39 40 41 42 42 43 44 45 45 46 47 47 47 47 48 48 49 49 49 50 51 51
25 26 26 27 27 28 28 29 30 30 31 32 32 33 34 35 36 37 38 39 40 41 42 43 43 44 45 46 47 47 47 48 48 49 49 50 50 50 51 51 51 51 51
27 27 28 28 29 30 30 31 32 33 33 33 34 35 36 37 38 39 40 41 42 43 44 45 45 47 48 48 49 49 50 50 50 50 51 52 52 53 53 53 52 53 53
27 28 28 29 30 30 32 32 33 34 35 36 36 37 38 39 39 40 42 43 44 46 46 47 48 49 50 51 51 52 53 52 52 52 53 53 53 54 53 53 54 54 54
30 30 31 31 32 32 33 33 34 35 36 37 38 39 40 41 42 43 44 45 46 48 49 51 52 52 53 54 54 54 54 54 55 55 55 55 55 55 54 54 54 55 55
32 32 33 34 34 35 36 36 37 38 39 40 41 42 42 43 45 46 48 49 50 51 52 54 54 55 56 56 55 55 55 56 56 56 56 56 56 55 55 55 55 54 54
34 35 35 36 37 37 38 38 39 40 41 42 43 44 45 46 48 49 51 52 53 54 55 56 57 57 57 57 57 57 57 57 57 57 57 57 57 56 56 55 55 55 55
35 36 37 37 38 39 40 40 41 42 44 45 46 47 48 49 51 52 53 55 55 56 57 58 58 58 58 58 58 58 59 59 58 58 58 57 57 57 56 56 55 55 55
Wind_Direction
233 234 230 229 233 239 248 257 269 285 301 314 322 330 329 329 333 336 337 337 335 331 325 319 315 315 313 313 309 303 303 298 296 296 293 292 295 295 291 289 292 289 286
234 235 230 232 237 242 248 256 266 277 287 296 306 316 319 316 318 320 322 324 325 325 323 319 316 310 308 310 310 306 304 303 300 300 300 300 299 298 297 294 292 291 289
234 235 234 238 242 246 250 256 265 273 280 286 293 302 308 309 308 309 311 312 315 317 317 317 314 306 304 305 305 301 301 301 300 298 298 301 302 302 302 300 296 295 292
237 239 237 241 244 248 252 256 265 274 279 284 289 294 298 300 302 305 307 307 308 311 312 309 307 305 302 302 302 300 299 297 297 296 296 298 299 300 300 299 298 297 295
238 242 242 242 245 249 255 257 264 273 277 281 286 289 292 293 295 298 300 301 303 304 307 306 304 302 301 300 299 298 297 295 295 296 297 298 297 296 294 295 295 295 294
242 245 247 248 250 254 258 260 263 269 273 278 281 284 287 289 291 292 293 296 298 300 302 303 303 302 301 299 298 297 298 296 295 295 296 297 296 294 294 294 295 294 293
248 251 250 251 253 255 260 263 264 267 271 276 281 282 283 286 288 289 290 291 292 294 295 296 297 298 298 295 295 294 295 295 294 294 295 296 294 294 295 293 294 294 293
252 256 254 255 256 257 261 265 264 267 271 275 278 280 280 282 285 287 288 288 289 289 290 291 293 295 295 293 293 294 294 293 294 293 294 294 293 293 293 293 292 292 293
256 257 259 258 258 259 264 266 267 268 271 274 275 277 279 281 283 285 287 286 287 288 289 290 292 293 293 291 291 292 292 292 293 294 294 294 294 293 293 293 293 293 293
258 258 259 260 259 263 265 267 268 270 271 271 274 276 279 282 283 285 286 285 286 287 289 291 291 292 292 291 291 291 291 291 292 292 291 292 294 294 294 294 294 294 293
258 260 261 259 260 264 266 267 268 270 271 272 273 275 278 281 282 283 284 285 285 287 288 290 291 291 292 291 291 291 291 292 292 293 293 292 293 294 294 294 294 294 293
257 259 259 260 264 265 266 267 268 269 272 273 273 274 276 278 280 282 284 285 285 286 287 289 290 291 292 291 291 291 292 293 293 293 294 294 293 292 293 293 293 293 293
261 261 260 261 265 267 267 267 267 269 270 272 273 275 277 278 279 281 283 284 286 287 288 289 291 292 292 293 293 293 294 294 294 295 295 295 295 294 294 293 293 293 293
265 263 263 264 267 267 269 270 269 270 272 273 274 275 277 279 280 282 283 284 286 287 289 290 291 292 293 293 293 294 294 294 295 294 294 295 295 295 295 295 294 294 294
266 267 268 269 269 269 270 270 269 271 273 274 275 276 277 279 280 282 284 285 286 287 289 290 291 292 293 293 294 294 294 295 295 295 295 295 294 294 294 294 294 294 294
265 267 269 270 269 270 270 269 270 272 273 274 276 278 280 281 283 285 284 284 286 288 289 290 290 291 292 293 294 294 295 295 296 295 295 294 294 294 294 294 294 293 294
267 269 270 271 272 273 272 273 273 274 275 276 278 280 282 283 284 285 287 286 287 288 289 290 290 291 292 293 294 294 294 295 295 295 295 295 294 294 294 294 294 293 293
271 272 272 272 272 273 273 274 275 275 277 278 279 281 282 284 286 287 288 288 288 289 290 291 291 292 293 293 294 294 295 295 296 296 295 294 294 294 294 294 294 294 293
274 275 275 275 274 274 275 275 276 276 277 279 280 281 283 285 286 287 288 288 289 291 291 292 292 293 294 294 295 295 295 295 295 295 295 294 294 294 294 294 294 294 293
275 277 277 277 277 277 277 277 277 277 279 281 281 283 284 285 286 287 289 290 291 292 292 293 293 294 294 294 295 295 294 294 294 294 294 294 294 294 295 294 294 294 294
277 278 278 278 278 279 280 280 280 280 281 282 282 283 284 285 287 288 290 291 291 291 292 293 293 294 294 295 295 294 294 294 294 294 294 294 294 294 295 294 294 293 293
279 280 280 280 280 281 282 282 281 282 283 283 284 285 285 286 288 289 290 291 291 291 292 293 294 294 295 294 294 294 294 294 294 294 294 294 294 294 294 294 294 294 293
280 281 281 282 282 283 283 283 283 284 285 285 286 286 287 288 289 290 291 293 293 293 293 294 294 295 295 294 294 294 294 294 294 294 294 294 294 294 293 293 294 294 294
280 281 282 283 283 283 284 284 285 286 287 287 287 287 288 289 290 291 292 292 293 293 294 295 295 295 295 294 294 294 294 294 294 294 294 294 294 294 294 294 294 294 294
281 281 282 283 284 284 285 285 286 287 287 288 289 289 289 290 291 292 292 293 293 294 294 295 295 295 294 294 293 293 293 294 294 294 294 294 293 293 293 293 293 293 294
282 283 284 284 285 286 287 287 288 288 289 289 290 290 291 291 292 293 293 294 294 294 294 294 294 294 294 293 293 293 293 293 294 294 293 293 293 293 293 293 293 293 294
Height
5876 5878 5880 5881 5882 5883 5884 5885 5885 5885 5885 5885 5885 5885 5884 5884 5883 5882 5881 5881 5880 5879 5878 5877 5877 5876 5875 5875 5874 5873 5873 5872 5872 5872 5871 5871 5870 5870 5869 5869 5869 5869 5869
5874 5876 5878 5879 5881 5882 5883 5884 5884 5884 5884 5884 5884 5884 5883 5883 5882 5881 5881 5880 5879 5878 5877 5876 5876 5875 5874 5873 5872 5871 5871 5870 5870 5869 5868 5868 5867 5866 5866 5866 5865 5865 5865
5873 5874 5876 5877 5879 5880 5881 5882 5882 5883 5883 5883 5883 5882 5882 5881 5881 5880 5879 5879 5878 5877 5876 5875 5874 5873 5872 5871 5870 5869 5868 5868 5867 5866 5865 5865 5864 5864 5863 5862 5862 5862 5861
5870 5872 5874 5875 5877 5878 5879 5880 5880 5881 5881 5881 5881 5880 5880 5880 5879 5878 5878 5877 5876 5875 5874 5873 5872 5871 5870 5869 5868 5867 5866 5865 5864 5864 5863 5862 5861 5860 5860 5859 5858 5858 5857
5868 5869 5871 5873 5874 5875 5876 5877 5878 5878 5878 5879 5878 5878 5878 5877 5877 5876 5875 5875 5874 5873 5872 5871 5870 5869 5868 5866 5865 5865 5864 5863 5861 5860 5859 5859 5858 5857 5856 5855 5854 5853 5852
5865 5867 5868 5869 5871 5872 5873 5874 5874 5875 5875 5875 5876 5875 5875 5874 5874 5873 5873 5872 5871 5870 5869 5868 5867 5866 5865 5863 5862 5861 5860 5859 5858 5857 5856 5855 5854 5852 5851 5849 5848 5847 5846
5862 5863 5864 5866 5867 5868 5869 5870 5871 5871 5871 5872 5872 5872 5871 5871 5870 5870 5869 5869 5868 5867 5866 5865 5864 5863 5861 5860 5859 5858 5856 5855 5854 5853 5851 5850 5848 5847 5845 5844 5842 5841 5839
5858 5860 5861 5862 5863 5864 5865 5866 5866 5867 5867 5867 5868 5868 5867 5867 5866 5866 5865 5865 5864 5863 5862 5861 5860 5858 5857 5856 5855 5853 5851 5850 5848 5847 5845 5844 5842 5840 5838 5837 5835 5833 5832
5855 5856 5857 5858 5859 5860 5861 5861 5862 5862 5863 5863 5863 5863 5863 5862 5862 5861 5861 5860 5859 5858 5857 5856 5855 5853 5852 5850 5849 5848 5846 5844 5842 5840 5838 5836 5834 5832 5830 5828 5826 5825 5823
5851 5852 5853 5854 5855 5855 5856 5857 5857 5858 5858 5858 5858 5858 5858 5857 5857 5856 5855 5855 5854 5853 5852 5851 5849 5848 5846 5844 5843 5841 5839 5837 5835 5833 5831 5828 5826 5823 5821 5819 5816 5814 5812
5846 5847 5848 5849 5850 5851 5851 5852 5852 5852 5852 5853 5853 5853 5852 5852 5851 5850 5850 5849 5848 5847 5846 5845 5843 5841 5839 5838 5836 5834 5832 5829 5827 5825 5822 5820 5817 5814 5811 5809 5806 5803 5801
5841 5842 5843 5844 5845 5846 5846 5846 5846 5847 5847 5847 5847 5847 5846 5846 5845 5844 5843 5843 5842 5841 5840 5838 5836 5834 5832 5830 5828 5826 5823 5821 5818 5816 5813 5810 5807 5804 5801 5798 5795 5792 5789
5836 5837 5838 5839 5839 5840 5840 5840 5841 5841 5841 5841 5841 5840 5840 5840 5839 5838 5837 5836 5835 5834 5832 5830 5828 5826 5824 5822 5819 5817 5814 5812 5809 5806 5803 5800 5796 5793 5789 5786 5783 5779 5776
5831 5831 5832 5833 5833 5834 5834 5834 5834 5835 5835 5835 5834 5834 5834 5833 5832 5831 5830 5829 5827 5826 5824 5822 5820 5818 5815 5813 5810 5807 5804 5801 5798 5795 5792 5788 5784 5781 5777 5774 5770 5767 5764
5825 5826 5826 5827 5827 5828 5828 5828 5828 5828 5828 5828 5827 5827 5826 5826 5825 5823 5822 5821 5819 5818 5816 5814 5811 5809 5806 5803 5800 5797 5793 5790 5786 5783 5779 5776 5772 5768 5765 5761 5757 5754 5750
5819 5820 5821 5821 5821 5821 5821 5821 5821 5821 5821 5820 5820 5819 5819 5818 5816 5815 5814 5812 5810 5809 5807 5804 5802 5799 5796 5793 5789 5786 5782 5778 5774 5770 5767 5763 5759 5755 5752 5748 5743 5740 5736
5813 5814 5814 5814 5814 5815 5814 5814 5814 5814 5813 5813 5812 5811 5810 5809 5808 5806 5804 5803 5801 5799 5796 5794 5791 5788 5785 5782 5778 5774 5770 5766 5762 5758 5754 5750 5746 5742 5738 5734 5729 5725 5721
5807 5807 5807 5807 5807 5807 5807 5807 5807 5806 5806 5805 5804 5803 5801 5800 5798 5797 5795 5793 5791 5788 5786 5783 5780 5776 5773 5769 5765 5761 5757 5753 5749 5744 5740 5736 5731 5727 5723 5719 5714 5710 5706
5801 5801 5801 5801 5800 5800 5799 5799 5798 5798 5797 5796 5795 5794 5792 5790 5789 5787 5785 5782 5780 5777 5774 5771 5768 5764 5760 5756 5752 5748 5744 5739 5735 5730 5726 5722 5717 5713 5708 5704 5700 5695 5691
5794 5793 5793 5793 5792 5792 5791 5790 5790 5789 5788 5787 5785 5784 5782 5780 5778 5776 5774 5771 5769 5766 5762 5759 5755 5751 5747 5743 5739 5734 5730 5725 5721 5716 5712 5707 5703 5698 5694 5689 5684 5680 5675
5786 5786 5785 5785 5784 5783 5782 5781 5781 5779 5778 5777 5775 5774 5772 5770 5768 5765 5763 5760 5757 5753 5750 5746 5742 5738 5733 5729 5724 5720 5715 5711 5706 5702 5697 5693 5688 5683 5678 5673 5669 5664 5660
5778 5778 5777 5776 5775 5774 5773 5772 5771 5769 5768 5766 5765 5763 5760 5758 5756 5753 5750 5747 5744 5740 5736 5732 5728 5723 5718 5714 5709 5704 5700 5695 5691 5686 5681 5677 5672 5667 5662 5657 5653 5648 5643
5770 5769 5768 5767 5766 5765 5764 5762 5761 5759 5757 5755 5753 5751 5749 5746 5743 5740 5737 5734 5730 5726 5721 5717 5713 5708 5703 5698 5693 5688 5684 5679 5675 5670 5665 5660 5656 5651 5646 5641 5637 5632 5627
5761 5760 5759 5758 5756 5755 5753 5752 5750 5748 5746 5743 5741 5738 5736 5733 5730 5727 5723 5719 5715 5711 5706 5702 5697 5692 5687 5682 5677 5672 5667 5662 5657 5652 5648 5643 5638 5634 5629 5624 5620 5615 5610
5751 5750 5749 5747 5746 5744 5742 5740 5738 5736 5733 5731 5728 5725 5722 5719 5715 5712 5708 5704 5699 5695 5690 5685 5680 5675 5670 5665 5660 5655 5650 5644 5639 5634 5630 5625 5621 5616 5612 5607 5603 5598 5593
5740 5739 5738 5736 5734 5732 5730 5728 5726 5723 5720 5717 5714 5711 5708 5704 5700 5696 5692 5687 5683 5678 5673 5668 5662 5657 5652 5647 5642 5637 5632 5626 5621 5616 5611 5607 5603 5599 5594 5590 5586 5581 5577